Date,TemperatureHighF,TemperatureAvgF,TemperatureLowF,DewpointHighF,DewpointAvgF,DewpointLowF,HumidityHigh,HumidityAvg,HumidityLow,PressureMaxIn,PressureMinIn,WindSpeedMaxMPH,WindSpeedAvgMPH,GustSpeedMaxMPH,PrecipitationSumIn
2013-1-1,28.0,20.5,7.0,-99.9,-99.9,-99.9,0,0,100,29.87,29.58,2,0,0,0.00
2013-1-2,21.0,8.3,-4.0,-99.9,-99.9,-99.9,0,0,100,30.07,29.84,2,0,0,0.00
2013-1-3,20.0,3.8,-9.0,-99.9,-99.9,-99.9,0,0,100,30.12,29.93,0,0,0,0.00
2013-1-4,33.0,18.4,-1.0,-99.9,-99.9,-99.9,0,0,100,29.93,29.70,2,0,0,0.00
2013-1-5,32.0,26.1,13.0,-99.9,-99.9,-99.9,0,0,100,30.23,29.70,2,0,0,0.00
2013-1-6,33.0,22.1,10.0,-99.9,-99.9,-99.9,0,0,100,30.21,29.88,1,0,0,0.00
2013-1-7,29.0,22.2,9.0,-99.9,-99.9,-99.9,0,0,100,30.36,29.90,0,0,0,0.00
2013-1-8,41.0,22.7,9.0,-99.9,-99.9,-99.9,0,0,100,30.35,30.16,1,0,0,0.00
2013-1-9,39.0,25.5,14.0,-99.9,-99.9,-99.9,0,0,100,30.42,29.88,1,0,0,0.00
2013-1-10,43.0,37.2,27.0,-99.9,-99.9,-99.9,0,0,100,30.52,29.89,3,1,0,0.00
2013-1-11,36.0,28.2,20.0,-99.9,-99.9,-99.9,0,0,100,30.53,30.24,0,0,0,0.00
2013-1-12,38.0,33.5,31.0,-99.9,-99.9,-99.9,0,0,100,30.24,30.09,0,0,0,0.00
2013-1-13,40.0,36.7,35.0,-99.9,-99.9,-99.9,0,0,100,30.14,29.92,0,0,0,0.00
2013-1-14,54.0,39.2,31.0,-99.9,-99.9,-99.9,0,0,100,30.19,29.82,1,0,0,0.00
2013-1-15,39.0,31.3,26.0,-99.9,-99.9,-99.9,0,0,100,30.31,30.18,0,0,0,0.00
2013-1-16,28.0,27.2,25.0,-99.9,-99.9,-99.9,0,0,100,30.26,29.76,0,0,0,0.00
2013-1-17,37.0,24.0,16.0,-99.9,-99.9,-99.9,0,0,100,30.12,29.76,2,0,0,0.00
2013-1-18,16.0,10.2,2.0,-99.9,-99.9,-99.9,0,0,100,30.43,30.09,1,0,0,0.00
2013-1-19,32.0,21.8,8.0,-99.9,-99.9,-99.9,0,0,100,30.38,29.85,0,0,0,0.00
2013-1-20,44.0,32.5,23.0,-99.9,-99.9,-99.9,0,0,100,29.85,29.42,4,1,0,0.00
2013-1-21,25.0,17.3,6.0,-99.9,-99.9,-99.9,0,0,100,30.03,29.82,1,0,0,0.00
2013-1-22,18.0,12.1,1.0,-99.9,-99.9,-99.9,0,0,100,30.03,29.77,1,0,0,0.00
2013-1-23,4.0,-2.1,-8.0,-99.9,-99.9,-99.9,0,0,100,30.14,30.03,1,0,0,0.00
2013-1-24,13.0,0.3,-11.0,-99.9,-99.9,-99.9,0,0,100,30.15,29.96,1,0,0,0.00
2013-1-25,19.0,6.4,-8.0,-99.9,-99.9,-99.9,0,0,100,30.24,30.06,0,0,0,0.00
2013-1-26,19.0,11.9,4.0,-99.9,-99.9,-99.9,0,0,100,30.14,29.99,1,0,0,0.00
2013-1-27,25.0,11.2,1.0,-99.9,-99.9,-99.9,0,0,100,30.42,30.14,1,0,0,0.00
2013-1-28,24.0,14.7,3.0,-99.9,-99.9,-99.9,0,0,100,30.42,30.06,1,0,0,0.00
2013-1-29,32.0,23.1,11.0,-99.9,-99.9,-99.9,0,0,100,30.19,30.05,0,0,0,0.00
2013-1-30,37.0,33.1,30.0,-99.9,-99.9,-99.9,0,0,100,30.12,29.41,0,0,0,0.00
2013-1-31,50.0,38.3,28.0,-99.9,-99.9,-99.9,0,0,100,29.41,28.77,4,2,0,0.00
2013-2-1,28.0,23.6,15.0,-99.9,-99.9,-99.9,0,0,100,30.00,29.41,2,1,0,0.00
2013-2-2,26.0,18.1,10.0,-99.9,-99.9,-99.9,0,0,100,30.18,30.00,1,0,0,0.00
2013-2-3,28.0,22.7,16.0,-99.9,-99.9,-99.9,0,0,100,30.03,29.68,0,0,0,0.00
2013-2-4,28.0,21.1,11.0,-99.9,-99.9,-99.9,0,0,100,29.84,29.64,2,0,0,0.00
2013-2-5,24.0,15.4,4.0,-99.9,-99.9,-99.9,0,0,100,30.02,29.84,1,0,0,0.00
2013-2-6,36.0,23.8,15.0,-99.9,-99.9,-99.9,0,0,100,30.24,29.89,2,0,0,0.00
2013-2-7,22.0,14.5,7.0,-99.9,-99.9,-99.9,0,0,100,30.56,30.24,0,0,0,0.00
2013-2-8,14.0,10.3,6.0,-99.9,-99.9,-99.9,0,0,100,30.55,29.93,0,0,0,0.00
2013-2-9,17.0,13.4,10.0,-99.9,-99.9,-99.9,0,0,100,30.11,29.72,2,0,0,0.00
2013-2-10,34.0,17.2,4.0,-99.9,-99.9,-99.9,0,0,100,30.34,30.11,1,0,0,0.00
2013-2-11,26.0,17.8,5.0,-99.9,-99.9,-99.9,0,0,100,30.32,29.56,0,0,0,0.00
2013-2-12,43.0,31.0,22.0,-99.9,-99.9,-99.9,0,0,100,29.73,29.50,2,0,0,0.00
2013-2-13,40.0,30.3,21.0,-99.9,-99.9,-99.9,0,0,100,29.79,29.70,1,0,0,0.00
2013-2-14,38.0,30.2,24.0,-99.9,-99.9,-99.9,0,0,100,29.96,29.67,1,0,0,0.00
2013-2-15,46.0,30.0,19.0,-99.9,-99.9,-99.9,0,0,100,29.96,29.83,1,0,0,0.00
2013-2-16,37.0,31.6,27.0,-99.9,-99.9,-99.9,0,0,100,29.91,29.75,0,0,0,0.00
2013-2-17,27.0,21.6,17.0,-99.9,-99.9,-99.9,0,0,100,29.76,29.23,3,1,0,0.00
2013-2-18,31.0,19.8,10.0,-99.9,-99.9,-99.9,0,0,100,30.03,29.47,2,0,0,0.00
2013-2-19,38.0,25.4,7.0,-99.9,-99.9,-99.9,0,0,100,30.09,29.55,1,0,0,0.00
2013-2-20,36.0,30.9,25.0,-99.9,-99.9,-99.9,0,0,100,29.62,29.40,2,0,0,0.00
2013-2-21,27.0,24.0,19.0,-99.9,-99.9,-99.9,0,0,100,30.13,29.62,3,0,0,0.00
2013-2-22,38.0,28.5,19.0,-99.9,-99.9,-99.9,0,0,100,30.38,30.13,1,0,0,0.00
2013-2-23,33.0,29.7,25.0,-99.9,-99.9,-99.9,0,0,100,30.32,29.97,0,0,0,0.00
2013-2-24,31.0,29.8,28.0,-99.9,-99.9,-99.9,0,0,100,29.97,29.75,0,0,0,0.00
2013-2-25,40.0,31.7,26.0,-99.9,-99.9,-99.9,0,0,100,30.19,29.87,0,0,0,0.00
2013-2-26,41.0,33.6,29.0,-99.9,-99.9,-99.9,0,0,100,30.33,30.20,1,0,0,0.00
2013-2-27,33.0,30.9,28.0,-99.9,-99.9,-99.9,0,0,100,30.22,29.66,0,0,0,0.00
2013-2-28,37.0,32.5,29.0,-99.9,-99.9,-99.9,0,0,100,29.66,29.52,0,0,0,0.00
2013-3-1,35.0,31.5,27.0,-99.9,-99.9,-99.9,0,0,100,29.64,29.52,0,0,0,0.00
2013-3-2,40.0,32.6,28.0,-99.9,-99.9,-99.9,0,0,100,29.63,29.57,1,0,0,0.00
2013-3-3,41.0,33.2,29.0,-99.9,-99.9,-99.9,0,0,100,29.59,29.49,1,0,0,0.00
2013-3-4,36.0,30.9,28.0,-99.9,-99.9,-99.9,0,0,100,29.68,29.49,1,0,0,0.00
2013-3-5,41.0,34.4,28.0,-99.9,-99.9,-99.9,0,0,100,30.08,29.68,1,0,0,0.00
2013-3-6,36.0,32.0,30.0,-99.9,-99.9,-99.9,0,0,100,30.22,30.08,0,0,0,0.00
2013-3-7,34.0,30.8,29.0,-99.9,-99.9,-99.9,0,0,100,30.19,30.07,1,0,0,0.00
2013-3-8,43.0,33.8,27.0,-99.9,-99.9,-99.9,0,0,100,30.18,30.02,1,0,0,0.00
2013-3-9,51.0,35.2,24.0,-99.9,-99.9,-99.9,0,0,100,30.35,30.16,1,0,0,0.00
2013-3-10,43.0,32.0,22.0,-99.9,-99.9,-99.9,0,0,100,30.40,30.27,1,0,0,0.00
2013-3-11,45.0,36.3,31.0,-99.9,-99.9,-99.9,0,0,100,30.28,30.10,1,0,0,0.00
2013-3-12,45.0,37.9,32.0,-99.9,-99.9,-99.9,0,0,100,30.11,29.67,0,0,0,0.00
2013-3-13,46.0,39.1,30.0,-99.9,-99.9,-99.9,0,0,100,29.71,29.63,0,0,0,0.00
2013-3-14,40.0,30.2,21.0,-99.9,-99.9,-99.9,0,0,100,29.73,29.59,1,0,0,0.00
2013-3-15,37.0,24.5,13.0,-99.9,-99.9,-99.9,0,0,100,29.78,29.55,1,0,0,0.00
2013-3-16,37.0,28.2,19.0,-99.9,-99.9,-99.9,0,0,100,29.86,29.59,1,0,0,0.00
2013-3-17,32.0,23.1,14.0,-99.9,-99.9,-99.9,0,0,100,30.30,29.86,4,1,0,0.00
2013-3-18,34.0,23.1,8.0,-99.9,-99.9,-99.9,0,0,100,30.44,30.25,1,0,0,0.00
2013-3-19,32.0,28.6,23.0,-99.9,-99.9,-99.9,0,0,100,30.24,29.68,0,0,0,0.00
2013-3-20,37.0,27.9,16.0,-99.9,-99.9,-99.9,0,0,100,29.68,29.57,3,0,0,0.00
2013-3-21,40.0,29.2,17.0,-99.9,-99.9,-99.9,0,0,100,29.74,29.56,1,0,0,0.00
2013-3-22,40.0,29.9,21.0,-99.9,-99.9,-99.9,0,0,100,29.62,29.56,2,0,0,0.00
2013-3-23,42.0,31.8,21.0,-99.9,-99.9,-99.9,0,0,100,29.65,29.49,4,1,0,0.00
2013-3-24,46.0,35.2,25.0,-99.9,-99.9,-99.9,0,0,100,29.75,29.63,1,0,0,0.00
2013-3-25,42.0,33.9,25.0,-99.9,-99.9,-99.9,0,0,100,29.74,29.56,0,0,0,0.00
2013-3-26,49.0,38.0,30.0,-99.9,-99.9,-99.9,0,0,100,29.70,29.55,2,0,0,0.00
2013-3-27,51.0,36.9,27.0,-99.9,-99.9,-99.9,0,0,100,29.84,29.68,2,0,0,0.00
2013-3-28,50.0,39.1,34.0,-99.9,-99.9,-99.9,0,0,100,29.94,29.83,1,0,0,0.00
2013-3-29,53.0,41.7,33.0,-99.9,-99.9,-99.9,0,0,100,29.98,29.91,1,0,0,0.00
2013-3-30,55.0,40.0,30.0,-99.9,-99.9,-99.9,0,0,100,30.05,29.93,1,0,0,0.00
2013-3-31,53.0,36.3,24.0,-99.9,-99.9,-99.9,0,0,100,30.09,29.79,1,0,0,0.00
2013-4-1,57.0,41.3,33.0,-99.9,-99.9,-99.9,0,0,100,29.79,29.40,1,0,0,0.00
2013-4-2,39.0,31.4,24.0,-99.9,-99.9,-99.9,0,0,100,29.78,29.66,3,1,0,0.00
2013-4-3,44.0,34.4,27.0,-99.9,-99.9,-99.9,0,0,100,30.02,29.77,3,1,0,0.00
2013-4-4,51.0,36.7,24.0,-99.9,-99.9,-99.9,0,0,100,30.19,29.92,2,0,0,0.00
2013-4-5,57.0,40.3,29.0,-99.9,-99.9,-99.9,0,0,100,29.92,29.59,2,0,0,0.00
2013-4-6,41.0,31.0,24.0,-99.9,-99.9,-99.9,0,0,100,30.30,29.79,2,0,0,0.00
2013-4-7,51.0,36.0,22.0,-99.9,-99.9,-99.9,0,0,100,30.30,29.89,1,0,0,0.00
2013-4-8,57.0,44.1,33.0,-99.9,-99.9,-99.9,0,0,100,30.07,29.85,1,0,0,0.00
2013-4-9,47.0,39.8,36.0,-99.9,-99.9,-99.9,0,0,100,30.07,29.85,0,0,0,0.00
2013-4-10,50.0,41.0,37.0,-99.9,-99.9,-99.9,0,0,100,29.94,29.84,0,0,0,0.00
2013-4-11,51.0,42.9,36.0,-99.9,-99.9,-99.9,0,0,100,30.14,29.84,2,0,0,0.00
2013-4-12,35.0,32.3,31.0,-99.9,-99.9,-99.9,0,0,100,30.24,29.88,0,0,0,0.00
2013-4-13,44.0,35.9,30.0,-99.9,-99.9,-99.9,0,0,100,29.89,29.79,0,0,0,0.00
2013-4-14,51.0,39.2,32.0,-99.9,-99.9,-99.9,0,0,100,30.17,29.86,1,0,0,0.00
2013-4-15,55.0,38.7,27.0,-99.9,-99.9,-99.9,0,0,100,30.37,30.17,1,0,0,0.00
2013-4-16,61.0,45.7,35.0,-99.9,-99.9,-99.9,0,0,100,30.38,29.92,1,0,0,0.00
2013-4-17,59.0,47.8,38.0,-99.9,-99.9,-99.9,0,0,100,30.31,29.91,2,0,0,0.00
2013-4-18,50.0,40.7,27.0,-99.9,-99.9,-99.9,0,0,100,30.47,30.13,0,0,0,0.00
2013-4-19,77.0,56.4,44.0,-99.9,-99.9,-99.9,0,0,100,30.12,29.54,3,0,0,0.00
2013-4-20,59.0,50.6,39.0,-99.9,-99.9,-99.9,0,0,100,30.12,29.52,3,1,0,0.00
2013-4-21,51.0,38.5,27.0,-99.9,-99.9,-99.9,0,0,100,30.68,30.13,2,0,0,0.00
2013-4-22,51.0,36.1,24.0,-99.9,-99.9,-99.9,0,0,100,30.80,30.65,1,0,0,0.00
2013-4-23,41.0,33.8,25.0,-99.9,-99.9,-99.9,0,0,100,30.65,30.20,0,0,0,0.00
2013-4-24,66.0,48.0,38.0,-99.9,-99.9,-99.9,0,0,100,30.22,29.72,1,0,0,0.00
2013-4-25,64.0,51.0,37.0,-99.9,-99.9,-99.9,0,0,100,30.26,29.72,2,0,0,0.00
2013-4-26,60.0,43.8,28.0,-99.9,-99.9,-99.9,0,0,100,30.42,30.26,1,0,0,0.00
2013-4-27,63.0,47.4,33.0,-99.9,-99.9,-99.9,0,0,100,30.40,30.25,1,0,0,0.00
2013-4-28,66.0,46.8,31.0,-99.9,-99.9,-99.9,0,0,100,30.32,30.19,1,0,0,0.00
2013-4-29,66.0,48.4,35.0,-99.9,-99.9,-99.9,0,0,100,30.25,30.14,1,0,0,0.00
2013-4-30,71.0,50.7,35.0,-99.9,-99.9,-99.9,0,0,100,30.35,30.22,1,0,0,0.00
2013-5-1,74.0,52.3,34.0,-99.9,-99.9,-99.9,0,0,100,30.44,30.35,1,0,0,0.00
2013-5-2,73.0,49.4,38.0,-99.9,-99.9,-99.9,0,0,100,30.50,30.37,1,0,0,0.00
2013-5-3,67.0,48.8,31.0,-99.9,-99.9,-99.9,0,0,100,30.55,30.33,1,0,0,0.00
2013-5-4,68.0,47.5,35.0,-99.9,-99.9,-99.9,0,0,100,30.38,30.24,1,0,0,0.00
2013-5-5,68.0,46.6,29.0,-99.9,-99.9,-99.9,0,0,100,30.32,30.19,1,0,0,0.00
2013-5-6,71.0,49.6,33.0,-99.9,-99.9,-99.9,0,0,100,30.25,30.10,1,0,0,0.00
2013-5-7,80.0,56.9,43.0,-99.9,-99.9,-99.9,0,0,100,30.15,30.01,1,0,0,0.00
2013-5-8,77.0,60.3,49.0,-99.9,-99.9,-99.9,0,0,100,30.19,30.06,1,0,0,0.00
2013-5-9,67.0,58.3,54.0,-99.9,-99.9,-99.9,0,0,100,30.06,29.84,0,0,0,0.00
2013-5-10,76.0,60.2,54.0,-99.9,-99.9,-99.9,0,0,100,29.91,29.85,1,0,0,0.00
2013-5-11,67.0,59.2,53.0,-99.9,-99.9,-99.9,0,0,100,29.87,29.62,0,0,0,0.00
2013-5-12,72.0,59.9,44.0,-99.9,-99.9,-99.9,0,0,100,29.70,29.49,1,0,0,0.00
2013-5-13,59.0,47.6,38.0,-99.9,-99.9,-99.9,0,0,100,29.98,29.70,2,0,0,0.00
2013-5-14,60.0,46.3,35.0,-99.9,-99.9,-99.9,0,0,100,30.01,29.90,1,0,0,0.00
2013-5-15,66.0,47.1,30.0,-99.9,-99.9,-99.9,0,0,100,30.00,29.62,1,0,0,0.00
2013-5-16,76.0,52.8,46.0,-99.9,-99.9,-99.9,0,0,100,29.75,29.51,2,0,0,0.00
2013-5-17,65.0,52.5,40.0,-99.9,-99.9,-99.9,0,0,100,30.17,29.75,1,0,0,0.00
2013-5-18,68.0,51.3,37.0,-99.9,-99.9,-99.9,0,0,100,30.30,30.17,0,0,0,0.00
2013-5-19,60.0,52.1,49.0,-99.9,-99.9,-99.9,0,0,100,30.35,30.20,0,0,0,0.00
2013-5-20,72.0,56.9,50.0,-99.9,-99.9,-99.9,0,0,100,30.20,29.88,0,0,0,0.00
2013-5-21,56.0,52.7,50.0,-99.9,-99.9,-99.9,0,0,100,30.11,29.92,1,0,0,0.00
2013-5-22,56.0,51.8,49.0,-99.9,-99.9,-99.9,0,0,100,29.98,29.88,0,0,0,0.00
2013-5-23,63.0,55.3,49.0,-99.9,-99.9,-99.9,0,0,100,29.91,29.73,0,0,0,0.00
2013-5-24,66.0,59.0,50.0,-99.9,-99.9,-99.9,0,0,100,29.82,29.59,1,0,0,0.00
2013-5-25,51.0,47.8,45.0,-99.9,-99.9,-99.9,0,0,100,29.82,29.65,2,1,0,0.00
2013-5-26,55.0,47.8,42.0,-99.9,-99.9,-99.9,0,0,100,29.96,29.61,1,0,0,0.00
2013-5-27,67.0,52.8,38.0,-99.9,-99.9,-99.9,0,0,100,30.13,29.96,2,0,0,0.00
2013-5-28,74.0,54.3,37.0,-99.9,-99.9,-99.9,0,0,100,30.22,30.13,1,0,0,0.00
2013-5-29,57.0,53.2,48.0,-99.9,-99.9,-99.9,0,0,100,30.16,29.96,0,0,0,0.00
2013-5-30,85.0,67.7,54.0,-99.9,-99.9,-99.9,0,0,100,29.98,29.91,1,0,0,0.00
2013-5-31,91.0,71.7,56.0,-99.9,-99.9,-99.9,0,0,100,30.01,29.83,1,0,0,0.00
2013-6-1,93.0,74.3,61.0,-99.9,-99.9,-99.9,0,0,100,29.86,29.73,1,0,0,0.00
2013-6-2,91.0,72.8,63.0,-99.9,-99.9,-99.9,0,0,100,29.75,29.56,2,0,0,0.00
2013-6-3,78.0,66.3,56.0,-99.9,-99.9,-99.9,0,0,100,29.75,29.64,1,0,0,0.00
2013-6-4,64.0,56.1,48.0,-99.9,-99.9,-99.9,0,0,100,30.02,29.73,2,0,0,0.00
2013-6-5,72.0,57.4,45.0,-99.9,-99.9,-99.9,0,0,100,30.13,30.02,0,0,0,0.00
2013-6-6,71.0,57.9,50.0,-99.9,-99.9,-99.9,0,0,100,30.18,30.09,0,0,0,0.00
2013-6-7,58.0,53.4,50.0,-99.9,-99.9,-99.9,0,0,100,30.09,29.90,0,0,0,0.00
2013-6-8,70.0,57.9,50.0,-99.9,-99.9,-99.9,0,0,100,29.92,29.65,1,0,0,0.00
2013-6-9,75.0,62.7,53.0,-99.9,-99.9,-99.9,0,0,100,30.10,29.92,0,0,0,0.00
2013-6-10,67.0,58.8,49.0,-99.9,-99.9,-99.9,0,0,100,30.18,30.01,0,0,0,0.00
2013-6-11,56.0,54.2,53.0,-99.9,-99.9,-99.9,0,0,100,30.01,29.54,0,0,0,0.00
2013-6-12,59.0,53.9,52.0,-99.9,-99.9,-99.9,0,0,100,29.54,29.50,0,0,0,0.00
2013-6-13,67.0,61.7,54.0,-99.9,-99.9,-99.9,0,0,100,29.74,29.67,0,0,0,0.00
2013-6-14,74.0,59.6,52.0,-99.9,-99.9,-99.9,0,0,100,29.70,29.61,1,0,0,0.00
2013-6-15,76.0,62.3,50.0,-99.9,-99.9,-99.9,0,0,100,29.85,29.69,1,0,0,0.00
2013-6-16,73.0,59.6,48.0,-99.9,-99.9,-99.9,0,0,100,29.86,29.65,0,0,0,0.00
2013-6-17,82.0,63.9,53.0,-99.9,-99.9,-99.9,0,0,100,29.81,29.67,1,0,0,0.00
2013-6-18,61.0,57.2,54.0,-99.9,-99.9,-99.9,0,0,100,29.94,29.81,0,0,0,0.00
2013-6-19,74.0,59.6,48.0,-99.9,-99.9,-99.9,0,0,100,30.09,29.88,0,0,0,0.00
2013-6-20,76.0,59.4,47.0,-99.9,-99.9,-99.9,0,0,100,30.21,30.09,0,0,0,0.00
2013-6-22,79.0,72.6,67.0,-99.9,-99.9,-99.9,0,0,100,30.13,30.05,0,0,0,0.00
2013-6-23,84.0,70.1,65.0,-99.9,-99.9,-99.9,0,0,100,30.07,29.91,2,0,0,0.00
2013-6-24,90.0,75.9,66.0,-99.9,-99.9,-99.9,0,0,100,29.93,29.77,1,0,0,0.00
2013-6-25,89.0,75.4,66.0,-99.9,-99.9,-99.9,0,0,100,29.82,29.64,1,0,0,0.00
2013-6-26,77.0,71.6,67.0,-99.9,-99.9,-99.9,0,0,100,29.72,29.64,0,0,0,0.00
2013-6-27,69.0,61.5,57.0,-99.9,-99.9,-99.9,0,0,100,29.84,29.76,0,0,0,0.00
2013-6-28,64.0,60.7,58.0,-99.9,-99.9,-99.9,0,0,100,29.79,29.49,0,0,0,0.00
2013-6-29,81.0,69.3,63.0,-99.9,-99.9,-99.9,0,0,100,29.62,29.49,0,0,0,0.00
2013-6-30,85.0,72.5,64.0,-99.9,-99.9,-99.9,0,0,100,29.87,29.62,0,0,0,0.00
2013-7-1,75.0,70.6,66.0,-99.9,-99.9,-99.9,0,0,100,30.04,29.86,0,0,0,0.00
2013-7-2,71.0,63.3,59.0,-99.9,-99.9,-99.9,0,0,100,30.19,30.02,0,0,0,0.00
2013-7-3,82.0,69.2,60.0,-99.9,-99.9,-99.9,0,0,100,30.17,30.01,0,0,0,0.00
2013-7-4,91.0,77.2,67.0,-99.9,-99.9,-99.9,0,0,100,30.11,29.98,0,0,0,0.00
2013-7-5,94.0,79.7,70.0,-99.9,-99.9,-99.9,0,0,100,30.06,29.93,0,0,0,0.00
2013-7-6,86.0,78.0,72.0,-99.9,-99.9,-99.9,0,0,100,29.96,29.87,0,0,0,0.00
2013-7-7,84.0,74.0,65.0,-99.9,-99.9,-99.9,0,0,100,29.93,29.85,0,0,0,0.00
2013-7-8,77.0,71.9,70.0,-99.9,-99.9,-99.9,0,0,100,30.03,29.85,0,0,0,0.00
2013-7-9,76.0,67.4,64.0,-99.9,-99.9,-99.9,0,0,100,30.08,30.02,0,0,0,0.00
2013-7-10,67.0,64.2,63.0,-99.9,-99.9,-99.9,0,0,100,30.05,29.73,0,0,0,0.00
2013-7-11,79.0,70.9,66.0,-99.9,-99.9,-99.9,0,0,100,29.91,29.70,0,0,0,0.00
2013-7-12,80.0,69.0,61.0,-99.9,-99.9,-99.9,0,0,100,30.16,29.91,0,0,0,0.00
2013-7-13,82.0,69.8,59.0,-99.9,-99.9,-99.9,0,0,100,30.27,30.16,0,0,0,0.00
2013-7-14,87.0,74.7,63.0,-99.9,-99.9,-99.9,0,0,100,30.24,30.12,0,0,0,0.00
2013-7-15,91.0,76.9,68.0,-99.9,-99.9,-99.9,0,0,100,30.14,30.02,0,0,0,0.00
2013-7-16,91.0,78.1,70.0,-99.9,-99.9,-99.9,0,0,100,30.10,30.04,0,0,0,0.00
2013-7-17,92.0,78.3,68.0,-99.9,-99.9,-99.9,0,0,100,30.11,29.88,0,0,0,0.00
2013-7-18,87.0,74.8,68.0,-99.9,-99.9,-99.9,0,0,100,29.95,29.87,2,0,0,0.00
2013-7-19,93.0,78.4,69.0,-99.9,-99.9,-99.9,0,0,100,29.90,29.58,1,0,0,0.00
2013-7-20,87.0,76.5,68.0,-99.9,-99.9,-99.9,0,0,100,29.72,29.55,1,0,0,0.00
2013-7-21,79.0,69.4,61.0,-99.9,-99.9,-99.9,0,0,100,29.96,29.72,1,0,0,0.00
2013-7-22,72.0,67.0,64.0,-99.9,-99.9,-99.9,0,0,100,30.00,29.89,0,0,0,0.00
2013-7-23,69.0,64.4,61.0,-99.9,-99.9,-99.9,0,0,100,29.89,29.50,0,0,0,0.00
2013-7-24,81.0,68.4,57.0,-99.9,-99.9,-99.9,0,0,100,29.93,29.52,1,0,0,0.00
2013-7-25,70.0,57.3,51.0,-99.9,-99.9,-99.9,0,0,100,30.08,29.93,0,0,0,0.00
2013-7-26,73.0,69.2,64.0,-99.9,-99.9,-99.9,0,0,100,29.97,29.86,2,0,0,0.00
2013-7-27,84.0,70.6,60.0,-99.9,-99.9,-99.9,0,0,100,29.96,29.88,0,0,0,0.00
2013-7-28,72.0,67.8,62.0,-99.9,-99.9,-99.9,0,0,100,29.98,29.95,0,0,0,0.00
2013-7-29,79.0,67.8,63.0,-99.9,-99.9,-99.9,0,0,100,30.00,29.91,1,0,0,0.00
2013-7-30,80.0,67.8,59.0,-99.9,-99.9,-99.9,0,0,100,30.03,29.96,1,0,0,0.00
2013-7-31,81.0,67.7,56.0,-99.9,-99.9,-99.9,0,0,100,30.08,29.98,0,0,0,0.00
2013-8-1,79.0,66.2,58.0,-99.9,-99.9,-99.9,0,0,100,29.99,29.82,1,0,0,0.00
2013-8-2,80.0,68.4,64.0,-99.9,-99.9,-99.9,0,0,100,29.83,29.68,0,0,0,0.00
2013-8-3,79.0,65.8,59.0,-99.9,-99.9,-99.9,0,0,100,29.78,29.67,1,0,0,0.00
2013-8-4,77.0,64.6,57.0,-99.9,-99.9,-99.9,0,0,100,29.80,29.70,1,0,0,0.00
2013-8-5,75.0,60.7,51.0,-99.9,-99.9,-99.9,0,0,100,29.98,29.80,1,0,0,0.00
2013-8-6,77.0,60.3,47.0,-99.9,-99.9,-99.9,0,0,100,30.10,29.98,0,0,0,0.00
2013-8-7,75.0,62.3,50.0,-99.9,-99.9,-99.9,0,0,100,30.14,30.06,0,0,0,0.00
2013-8-8,79.0,65.6,58.0,-99.9,-99.9,-99.9,0,0,100,30.06,29.93,0,0,0,0.00
2013-8-9,72.0,68.3,66.0,-99.9,-99.9,-99.9,0,0,100,29.95,29.68,0,0,0,0.00
2013-8-10,79.0,67.4,55.0,-99.9,-99.9,-99.9,0,0,100,29.95,29.69,1,0,0,0.00
2013-8-11,77.0,61.7,50.0,-99.9,-99.9,-99.9,0,0,100,30.01,29.92,0,0,0,0.00
2013-8-12,76.0,64.6,54.0,-99.9,-99.9,-99.9,0,0,100,29.95,29.84,0,0,0,0.00
2013-8-13,69.0,63.0,57.0,-99.9,-99.9,-99.9,0,0,100,29.85,29.64,0,0,0,0.00
2013-8-14,74.0,64.4,54.0,-99.9,-99.9,-99.9,0,0,100,29.84,29.58,2,0,0,0.00
2013-8-15,74.0,54.4,49.0,-99.9,-99.9,-99.9,0,0,100,30.03,29.84,1,0,0,0.00
2013-8-16,76.0,61.5,52.0,-99.9,-99.9,-99.9,0,0,100,30.12,30.03,0,0,0,0.00
2013-8-17,76.0,63.5,55.0,-99.9,-99.9,-99.9,0,0,100,30.23,30.12,0,0,0,0.00
2013-8-18,75.0,63.2,53.0,-99.9,-99.9,-99.9,0,0,100,30.23,30.01,0,0,0,0.00
2013-8-19,83.0,65.0,57.0,-99.9,-99.9,-99.9,0,0,100,30.00,29.84,1,0,0,0.00
2013-8-20,85.0,69.9,60.0,-99.9,-99.9,-99.9,0,0,100,30.02,29.90,0,0,0,0.00
2013-8-21,87.0,70.9,60.0,-99.9,-99.9,-99.9,0,0,100,30.08,29.93,0,0,0,0.00
2013-8-22,87.0,74.4,63.0,-99.9,-99.9,-99.9,0,0,100,29.93,29.70,0,0,0,0.00
2013-8-23,79.0,69.8,61.0,-99.9,-99.9,-99.9,0,0,100,30.09,29.71,1,0,0,0.00
2013-8-24,77.0,63.5,51.0,-99.9,-99.9,-99.9,0,0,100,30.27,30.09,1,0,0,0.00
2013-8-25,80.0,63.6,52.0,-99.9,-99.9,-99.9,0,0,100,30.32,30.09,0,0,0,0.00
2013-8-26,78.0,68.1,61.0,-99.9,-99.9,-99.9,0,0,100,30.09,29.81,0,0,0,0.00
2013-8-27,83.0,70.5,64.0,-99.9,-99.9,-99.9,0,0,100,29.84,29.78,0,0,0,0.00
2013-8-28,83.0,74.8,66.0,-99.9,-99.9,-99.9,0,0,100,29.96,29.80,0,0,0,0.00
2013-8-29,66.0,64.5,62.0,-99.9,-99.9,-99.9,0,0,100,30.06,29.93,0,0,0,0.00
2013-8-30,79.0,68.2,61.0,-99.9,-99.9,-99.9,0,0,100,29.99,29.71,0,0,0,0.00
2013-8-31,79.0,72.3,68.0,-99.9,-99.9,-99.9,0,0,100,29.76,29.70,0,0,0,0.00
2013-9-1,79.0,72.4,68.0,-99.9,-99.9,-99.9,0,0,100,29.85,29.70,0,0,0,0.00
2013-9-2,71.0,67.9,65.0,-99.9,-99.9,-99.9,0,0,100,29.83,29.69,1,0,0,0.00
2013-9-3,78.0,69.3,62.0,-99.9,-99.9,-99.9,0,0,100,29.71,29.64,0,0,0,0.00
2013-9-4,79.0,66.4,56.0,-99.9,-99.9,-99.9,0,0,100,29.83,29.70,1,0,0,0.00
2013-9-5,67.0,59.1,49.0,-99.9,-99.9,-99.9,0,0,100,30.10,29.80,1,0,0,0.00
2013-9-6,67.0,53.9,43.0,-99.9,-99.9,-99.9,0,0,100,30.19,30.00,0,0,0,0.00
2013-9-7,74.0,59.3,48.0,-99.9,-99.9,-99.9,0,0,100,29.99,29.74,0,0,0,0.00
2013-9-8,66.0,57.2,47.0,-99.9,-99.9,-99.9,0,0,100,30.02,29.67,1,0,0,0.00
2013-9-9,68.0,56.1,43.0,-99.9,-99.9,-99.9,0,0,100,30.16,30.02,0,0,0,0.00
2013-9-10,66.0,63.3,53.0,-99.9,-99.9,-99.9,0,0,100,30.05,29.97,0,0,0,0.00
2013-9-11,89.0,73.9,64.0,-99.9,-99.9,-99.9,0,0,100,29.99,29.84,1,0,0,0.00
2013-9-12,75.0,68.8,67.0,-99.9,-99.9,-99.9,0,0,100,29.91,29.61,0,0,0,0.00
2013-9-13,68.0,63.8,56.0,-99.9,-99.9,-99.9,0,0,100,29.69,29.54,1,0,0,0.00
2013-9-14,66.0,57.9,51.0,-99.9,-99.9,-99.9,0,0,100,29.99,29.69,0,0,0,0.00
2013-9-15,69.0,53.1,44.0,-99.9,-99.9,-99.9,0,0,100,30.09,29.96,0,0,0,0.00
2013-9-16,64.0,54.6,44.0,-99.9,-99.9,-99.9,0,0,100,30.23,29.93,1,0,0,0.00
2013-9-17,63.0,50.4,41.0,-99.9,-99.9,-99.9,0,0,100,30.40,30.24,1,0,0,0.00
2013-9-18,51.0,43.9,42.0,-99.9,-99.9,-99.9,0,0,100,30.27,30.06,0,0,0,0.00
2013-9-19,73.0,56.8,46.0,-99.9,-99.9,-99.9,0,0,100,30.10,29.97,0,0,0,0.00
2013-9-20,72.0,58.6,50.0,-99.9,-99.9,-99.9,0,0,100,30.07,29.96,0,0,0,0.00
2013-9-21,70.0,59.9,52.0,-99.9,-99.9,-99.9,0,0,100,29.98,29.69,1,0,0,0.00
2013-9-22,70.0,61.3,48.0,-99.9,-99.9,-99.9,0,0,100,29.73,29.53,1,0,0,0.00
2013-9-23,58.0,49.2,43.0,-99.9,-99.9,-99.9,0,0,100,29.93,29.74,1,0,0,0.00
2013-9-24,59.0,48.2,39.0,-99.9,-99.9,-99.9,0,0,100,29.91,29.78,1,0,0,0.00
2013-9-25,62.0,52.5,45.0,-99.9,-99.9,-99.9,0,0,100,29.95,29.83,1,0,0,0.00
2013-9-26,66.0,54.7,45.0,-99.9,-99.9,-99.9,0,0,100,30.11,29.96,0,0,0,0.00
2013-9-27,68.0,58.5,53.0,-99.9,-99.9,-99.9,0,0,100,30.21,30.10,0,0,0,0.00
2013-9-28,70.0,58.4,50.0,-99.9,-99.9,-99.9,0,0,100,30.31,30.22,0,0,0,0.00
2013-9-29,66.0,52.1,44.0,-99.9,-99.9,-99.9,0,0,100,30.24,30.08,0,0,0,0.00
2013-9-30,64.0,51.1,41.0,-99.9,-99.9,-99.9,0,0,100,30.10,29.93,0,0,0,0.00
2013-10-1,58.0,54.8,49.0,-99.9,-99.9,-99.9,0,0,100,29.93,29.81,0,0,0,0.00
2013-10-2,76.0,61.7,50.0,-99.9,-99.9,-99.9,0,0,100,29.81,29.71,1,0,0,0.00
2013-10-3,74.0,60.0,48.0,-99.9,-99.9,-99.9,0,0,100,30.02,29.92,0,0,0,0.00
2013-10-4,68.0,57.4,46.0,-99.9,-99.9,-99.9,0,0,100,30.06,29.98,0,0,0,0.00
2013-10-5,62.0,56.8,51.0,-99.9,-99.9,-99.9,0,0,100,30.11,30.03,0,0,0,0.00
2013-10-6,54.0,51.0,49.0,-99.9,-99.9,-99.9,0,0,100,30.25,30.10,0,0,0,0.00
2013-10-7,66.0,56.6,50.0,-99.9,-99.9,-99.9,0,0,100,30.16,29.70,1,0,0,0.00
2013-10-8,61.0,52.3,41.0,-99.9,-99.9,-99.9,0,0,100,30.36,29.78,1,0,0,0.00
2013-10-9,58.0,44.9,37.0,-99.9,-99.9,-99.9,0,0,100,30.47,30.35,0,0,0,0.00
2013-10-10,59.0,45.1,36.0,-99.9,-99.9,-99.9,0,0,100,30.35,30.16,0,0,0,0.00
2013-10-11,64.0,52.4,45.0,-99.9,-99.9,-99.9,0,0,100,30.16,30.09,0,0,0,0.00
2013-10-12,57.0,52.2,46.0,-99.9,-99.9,-99.9,0,0,100,30.39,30.14,0,0,0,0.00
2013-10-13,57.0,52.2,51.0,-99.9,-99.9,-99.9,0,0,100,30.44,30.36,0,0,0,0.00
2013-10-14,65.0,52.8,42.0,-99.9,-99.9,-99.9,0,0,100,30.36,30.18,0,0,0,0.00
2013-10-15,64.0,56.9,51.0,-99.9,-99.9,-99.9,0,0,100,30.26,30.16,0,0,0,0.00
2013-10-16,60.0,55.4,52.0,-99.9,-99.9,-99.9,0,0,100,30.16,29.85,0,0,0,0.00
2013-10-17,71.0,58.3,50.0,-99.9,-99.9,-99.9,0,0,100,29.85,29.67,1,0,0,0.00
2013-10-18,66.0,56.4,47.0,-99.9,-99.9,-99.9,0,0,100,29.79,29.55,2,0,0,0.00
2013-10-19,65.0,50.9,41.0,-99.9,-99.9,-99.9,0,0,100,29.89,29.70,1,0,0,0.00
2013-10-20,61.0,50.3,43.0,-99.9,-99.9,-99.9,0,0,100,29.93,29.62,3,0,0,0.00
2013-10-21,62.0,49.2,38.0,-99.9,-99.9,-99.9,0,0,100,30.05,29.92,1,0,0,0.00
2013-10-22,57.0,48.8,40.0,-99.9,-99.9,-99.9,0,0,100,29.92,29.67,0,0,0,0.00
2013-10-23,54.0,44.3,36.0,-99.9,-99.9,-99.9,0,0,100,29.73,29.53,0,0,0,0.00
2013-10-24,50.0,41.9,32.0,-99.9,-99.9,-99.9,0,0,100,29.79,29.57,2,0,0,0.00
2013-10-25,45.0,37.9,28.0,-99.9,-99.9,-99.9,0,0,100,30.08,29.79,1,0,0,0.00
2013-10-26,48.0,37.5,26.0,-99.9,-99.9,-99.9,0,0,100,30.09,29.82,1,0,0,0.00
2013-10-27,52.0,42.0,31.0,-99.9,-99.9,-99.9,0,0,100,29.99,29.75,1,0,0,0.00
2013-10-28,52.0,36.9,28.0,-99.9,-99.9,-99.9,0,0,100,30.32,29.98,2,0,0,0.00
2013-10-29,43.0,31.2,23.0,-99.9,-99.9,-99.9,0,0,100,30.45,30.32,0,0,0,0.00
2013-10-30,47.0,33.3,25.0,-99.9,-99.9,-99.9,0,0,100,30.34,30.14,1,0,0,0.00
2013-10-31,50.0,34.2,26.0,-99.9,-99.9,-99.9,0,0,100,30.22,29.73,0,0,0,0.00
2013-11-1,63.0,57.7,51.0,-99.9,-99.9,-99.9,0,0,100,29.71,29.27,2,0,0,0.00
2013-11-2,60.0,48.9,39.0,-99.9,-99.9,-99.9,0,0,100,29.71,29.52,1,0,0,0.00
2013-11-3,43.0,35.3,26.0,-99.9,-99.9,-99.9,0,0,100,30.42,29.71,2,0,0,0.00
2013-11-4,38.0,28.8,23.0,-99.9,-99.9,-99.9,0,0,100,30.71,30.43,1,0,0,0.00
2013-11-5,45.0,30.7,21.0,-99.9,-99.9,-99.9,0,0,100,30.73,30.48,1,0,0,0.00
2013-11-6,55.0,39.6,28.0,-99.9,-99.9,-99.9,0,0,100,30.48,29.95,0,0,0,0.00
2013-11-7,54.0,47.2,39.0,-99.9,-99.9,-99.9,0,0,100,29.94,29.59,1,0,0,0.00
2013-11-8,42.0,35.4,27.0,-99.9,-99.9,-99.9,0,0,100,29.97,29.75,2,0,0,0.00
2013-11-9,40.0,33.7,26.0,-99.9,-99.9,-99.9,0,0,100,30.12,29.98,2,0,0,0.00
2013-11-10,40.0,34.9,31.0,-99.9,-99.9,-99.9,0,0,100,30.03,29.68,0,0,0,0.00
2013-11-11,43.0,37.0,33.0,-99.9,-99.9,-99.9,0,0,100,30.01,29.72,1,0,0,0.00
2013-11-12,38.0,29.4,21.0,-99.9,-99.9,-99.9,0,0,100,30.12,29.80,1,0,0,0.00
2013-11-13,31.0,23.1,16.0,-99.9,-99.9,-99.9,0,0,100,30.25,30.08,1,0,0,0.00
2013-11-14,45.0,33.0,24.0,-99.9,-99.9,-99.9,0,0,100,30.07,29.95,1,0,0,0.00
2013-11-15,51.0,34.7,24.0,-99.9,-99.9,-99.9,0,0,100,30.16,30.05,1,0,0,0.00
2013-11-16,48.0,34.1,29.0,-99.9,-99.9,-99.9,0,0,100,30.32,30.16,0,0,0,0.00
2013-11-17,39.0,35.6,27.0,-99.9,-99.9,-99.9,0,0,100,30.34,29.91,1,0,0,0.00
2013-11-18,57.0,47.7,39.0,-99.9,-99.9,-99.9,0,0,100,29.87,29.44,3,0,0,0.00
2013-12-14,12.0,4.2,-6.0,-99.9,-99.9,-99.9,0,0,100,30.64,30.40,1,0,0,0.00
2013-12-15,20.0,12.3,7.0,-99.9,-99.9,-99.9,0,0,100,30.37,29.45,1,0,0,0.00
2013-12-16,21.0,11.6,1.0,-99.9,-99.9,-99.9,0,0,100,30.19,29.65,2,0,0,0.00
2013-12-17,13.0,0.9,-15.0,-99.9,-99.9,-99.9,0,0,100,30.33,30.07,0,0,0,0.00
2013-12-18,30.0,19.0,11.0,-99.9,-99.9,-99.9,0,0,100,30.03,29.82,1,0,0,0.00
2013-12-19,31.0,22.1,16.0,-99.9,-99.9,-99.9,0,0,100,30.05,29.88,0,0,0,0.00
2013-12-20,36.0,29.3,22.0,-99.9,-99.9,-99.9,0,0,100,30.09,29.87,0,0,0,0.00
2013-12-21,36.0,32.7,32.0,-99.9,-99.9,-99.9,0,0,100,29.91,29.79,0,0,0,0.00
2013-12-22,33.0,28.8,25.0,-99.9,-99.9,-99.9,0,0,100,30.06,29.85,0,0,0,0.00
2013-12-23,33.0,30.1,26.0,-99.9,-99.9,-99.9,0,0,100,30.09,29.93,0,0,0,0.00
2013-12-24,33.0,25.1,10.0,-99.9,-99.9,-99.9,0,0,100,30.16,30.02,0,0,0,0.00
2013-12-25,16.0,8.3,1.0,-99.9,-99.9,-99.9,0,0,100,30.54,30.17,0,0,0,0.00
2013-12-26,19.0,13.8,8.0,-99.9,-99.9,-99.9,0,0,100,30.50,30.07,0,0,0,0.00
2013-12-27,29.0,17.2,6.0,-99.9,-99.9,-99.9,0,0,100,30.19,30.12,0,0,0,0.00
2013-12-30,30.0,19.0,1.0,-99.9,-99.9,-99.9,0,0,100,30.15,29.57,0,0,0,0.00
2013-12-31,10.0,0.1,-9.0,-99.9,-99.9,-99.9,0,0,100,30.17,30.03,0,0,0,0.00
2014-1-1,16.0,3.7,-7.0,-99.9,-99.9,-99.9,0,0,100,30.39,30.12,0,0,0,0.00
2014-1-2,5.0,-1.9,-7.0,-99.9,-99.9,-99.9,0,0,100,30.43,30.03,0,0,0,0.00